Time,TemperatureF,DewpointF,PressureIn,WindDirection,WindDirectionDegrees,WindSpeedMPH,WindSpeedGustMPH,Humidity,HourlyPrecipIn,Conditions,Clouds,dailyrainin,SoftwareType,DateUTC
2013-01-14 00:07:00,27.1,23.0,30.30,NE,49,5.0,9.0,85,0.00,,,0.00,weatherlink.com 1.10,2013-01-14 06:07:00,
2013-01-14 00:23:00,26.9,23.0,30.30,NNE,21,3.0,13.0,85,0.00,,,0.00,weatherlink.com 1.10,2013-01-14 06:23:00,
2013-01-14 00:39:00,26.6,23.0,30.30,NE,35,1.0,11.0,85,0.00,,,0.00,weatherlink.com 1.10,2013-01-14 06:39:00,
2013-01-14 00:55:00,26.7,23.0,30.32,NE,51,2.0,9.0,86,0.00,,,0.00,weatherlink.com 1.10,2013-01-14 06:55:00,
2013-01-14 01:11:00,26.4,23.0,30.32,NNE,17,5.0,8.0,85,0.00,,,0.00,weatherlink.com 1.10,2013-01-14 07:11:00,
2013-01-14 01:28:00,26.5,23.0,30.33,NNW,338,2.0,7.0,86,0.00,,,0.00,weatherlink.com 1.10,2013-01-14 07:28:00,
2013-01-14 01:45:00,26.4,23.0,30.34,NNE,33,0.0,8.0,85,0.00,,,0.00,weatherlink.com 1.10,2013-01-14 07:45:00,
2013-01-14 02:01:00,26.3,22.0,30.34,ENE,70,2.0,9.0,85,0.00,,,0.00,weatherlink.com 1.10,2013-01-14 08:01:00,
2013-01-14 02:17:00,26.3,22.0,30.34,NE,51,4.0,9.0,85,0.00,,,0.00,weatherlink.com 1.10,2013-01-14 08:17:00,
2013-01-14 02:33:00,25.9,22.0,30.34,NNW,333,1.0,10.0,85,0.00,,,0.00,weatherlink.com 1.10,2013-01-14 08:33:00,
2013-01-14 02:49:00,26.0,22.0,30.34,NE,37,4.0,7.0,86,0.00,,,0.00,weatherlink.com 1.10,2013-01-14 08:49:00,
2013-01-14 03:05:00,25.6,22.0,30.34,East,80,7.0,11.0,85,0.00,,,0.00,weatherlink.com 1.10,2013-01-14 09:05:00,
2013-01-14 03:21:00,25.5,22.0,30.35,NW,319,2.0,10.0,85,0.00,,,0.00,weatherlink.com 1.10,2013-01-14 09:21:00,
2013-01-14 03:39:00,25.3,21.0,30.35,NE,54,5.0,9.0,85,0.00,,,0.00,weatherlink.com 1.10,2013-01-14 09:39:00,
2013-01-14 03:55:00,25.2,21.0,30.34,NNE,29,4.0,10.0,85,0.00,,,0.00,weatherlink.com 1.10,2013-01-14 09:55:00,
2013-01-14 04:11:00,25.1,21.0,30.35,NNW,348,6.0,9.0,85,0.00,,,0.00,weatherlink.com 1.10,2013-01-14 10:11:00,
2013-01-14 04:27:00,25.2,22.0,30.35,NW,310,2.0,9.0,86,0.00,,,0.00,weatherlink.com 1.10,2013-01-14 10:27:00,
2013-01-14 04:43:00,25.1,21.0,30.35,NNE,13,1.0,9.0,85,0.00,,,0.00,weatherlink.com 1.10,2013-01-14 10:43:00,
2013-01-14 04:59:00,25.3,22.0,30.36,NNE,22,3.0,9.0,86,0.00,,,0.00,weatherlink.com 1.10,2013-01-14 10:59:00,
2013-01-14 05:15:00,25.4,22.0,30.37,NNE,13,3.0,8.0,85,0.00,,,0.00,weatherlink.com 1.10,2013-01-14 11:15:00,
2013-01-14 05:31:00,25.6,22.0,30.37,NE,53,1.0,7.0,86,0.00,,,0.00,weatherlink.com 1.10,2013-01-14 11:31:00,
2013-01-14 05:48:00,25.6,22.0,30.37,NE,54,3.0,8.0,86,0.00,,,0.00,weatherlink.com 1.10,2013-01-14 11:48:00,
2013-01-14 06:04:00,24.2,20.0,30.39,NNE,30,5.0,12.0,84,0.00,,,0.00,weatherlink.com 1.10,2013-01-14 12:04:00,
2013-01-14 06:20:00,24.0,20.0,30.40,NW,322,4.0,10.0,85,0.00,,,0.00,weatherlink.com 1.10,2013-01-14 12:20:00,
2013-01-14 06:37:00,23.9,20.0,30.41,NE,42,3.0,13.0,85,0.00,,,0.00,weatherlink.com 1.10,2013-01-14 12:37:00,
2013-01-14 06:53:00,23.7,20.0,30.42,NNE,29,2.0,7.0,86,0.00,,,0.00,weatherlink.com 1.10,2013-01-14 12:53:00,
2013-01-14 07:09:00,23.7,20.0,30.41,NNE,16,1.0,6.0,86,0.00,,,0.00,weatherlink.com 1.10,2013-01-14 13:09:00,
2013-01-14 07:25:00,23.8,20.0,30.39,ENE,77,5.0,8.0,86,0.00,,,0.00,weatherlink.com 1.10,2013-01-14 13:25:00,
2013-01-14 07:42:00,23.4,20.0,30.40,NE,55,12.0,12.0,85,0.00,,,0.00,weatherlink.com 1.10,2013-01-14 13:42:00,
2013-01-14 07:58:00,23.7,20.0,30.40,NE,35,2.0,8.0,86,0.00,,,0.00,weatherlink.com 1.10,2013-01-14 13:58:00,
2013-01-14 08:15:00,24.4,21.0,30.39,ENE,66,8.0,8.0,86,0.00,,,0.00,weatherlink.com 1.10,2013-01-14 14:15:00,
2013-01-14 08:31:00,24.4,20.0,30.38,ESE,115,2.0,11.0,84,0.00,,,0.00,weatherlink.com 1.10,2013-01-14 14:31:00,
2013-01-14 08:47:00,23.9,20.0,30.39,ENE,57,2.0,12.0,84,0.00,,,0.00,weatherlink.com 1.10,2013-01-14 14:47:00,
2013-01-14 09:03:00,24.1,20.0,30.39,NE,50,2.0,9.0,85,0.00,,,0.00,weatherlink.com 1.10,2013-01-14 15:03:00,
2013-01-14 09:19:00,24.6,20.0,30.39,North,360,1.0,7.0,84,0.00,,,0.00,weatherlink.com 1.10,2013-01-14 15:19:00,
2013-01-14 09:36:00,25.5,21.0,30.39,East,79,5.0,5.0,84,0.00,,,0.00,weatherlink.com 1.10,2013-01-14 15:36:00,
2013-01-14 09:52:00,26.2,21.0,30.39,ENE,57,4.0,7.0,80,0.00,,,0.00,weatherlink.com 1.10,2013-01-14 15:52:00,
2013-01-14 10:09:00,26.0,20.0,30.40,ENE,61,7.0,9.0,78,0.00,,,0.00,weatherlink.com 1.10,2013-01-14 16:09:00,
2013-01-14 10:25:00,26.0,20.0,30.42,ENE,77,2.0,8.0,79,0.00,,,0.00,weatherlink.com 1.10,2013-01-14 16:25:00,
2013-01-14 10:41:00,26.6,21.0,30.40,ENE,59,4.0,7.0,79,0.00,,,0.00,weatherlink.com 1.10,2013-01-14 16:41:00,
2013-01-14 10:57:00,27.3,22.0,30.42,NNE,28,5.0,8.0,79,0.00,,,0.00,weatherlink.com 1.10,2013-01-14 16:57:00,
2013-01-14 11:13:00,27.8,22.0,30.38,NNE,26,4.0,7.0,77,0.00,,,0.00,weatherlink.com 1.10,2013-01-14 17:13:00,
2013-01-14 11:29:00,28.1,22.0,30.34,NE,49,2.0,11.0,78,0.00,,,0.00,weatherlink.com 1.10,2013-01-14 17:29:00,
2013-01-14 11:45:00,28.1,22.0,30.36,NE,50,5.0,9.0,78,0.00,,,0.00,weatherlink.com 1.10,2013-01-14 17:45:00,
2013-01-14 12:18:00,28.3,22.0,30.35,NE,51,4.0,9.0,77,0.00,,,0.00,weatherlink.com 1.10,2013-01-14 18:18:00,
2013-01-14 12:34:00,28.3,22.0,30.41,NW,321,5.0,11.0,78,0.00,,,0.00,weatherlink.com 1.10,2013-01-14 18:34:00,
2013-01-14 12:50:00,28.6,22.0,30.40,NNE,19,9.0,11.0,77,0.00,,,0.00,weatherlink.com 1.10,2013-01-14 18:50:00,
2013-01-14 13:07:00,29.2,23.0,30.44,NE,38,2.0,10.0,77,0.00,,,0.00,weatherlink.com 1.10,2013-01-14 19:07:00,
2013-01-14 13:23:00,29.2,22.0,30.45,NNW,342,7.0,10.0,75,0.00,,,0.00,weatherlink.com 1.10,2013-01-14 19:23:00,
2013-01-14 13:41:00,29.2,22.0,30.47,NW,315,2.0,10.0,75,0.00,,,0.00,weatherlink.com 1.10,2013-01-14 19:41:00,
2013-01-14 13:57:00,28.8,22.0,30.45,NE,40,5.0,11.0,76,0.00,,,0.00,weatherlink.com 1.10,2013-01-14 19:57:00,
2013-01-14 14:13:00,28.6,22.0,30.43,NNW,336,4.0,10.0,77,0.00,,,0.00,weatherlink.com 1.10,2013-01-14 20:13:00,
2013-01-14 14:29:00,28.2,22.0,30.43,NE,40,4.0,8.0,78,0.00,,,0.00,weatherlink.com 1.10,2013-01-14 20:29:00,
2013-01-14 14:48:00,28.0,22.0,30.41,NNE,25,1.0,10.0,78,0.00,,,0.00,weatherlink.com 1.10,2013-01-14 20:48:00,
2013-01-14 15:02:00,27.9,22.0,30.37,NE,37,1.0,9.0,79,0.00,,,0.00,weatherlink.com 1.10,2013-01-14 21:02:00,
2013-01-14 15:18:00,28.4,23.0,30.37,ENE,66,1.0,11.0,79,0.00,,,0.00,weatherlink.com 1.10,2013-01-14 21:18:00,
2013-01-14 15:34:00,28.4,23.0,30.38,NE,44,3.0,10.0,79,0.00,,,0.00,weatherlink.com 1.10,2013-01-14 21:34:00,
2013-01-14 15:50:00,28.5,23.0,30.37,ENE,74,2.0,11.0,80,0.00,,,0.00,weatherlink.com 1.10,2013-01-14 21:50:00,
2013-01-14 16:06:00,28.6,23.0,30.38,ENE,76,3.0,9.0,79,0.00,,,0.00,weatherlink.com 1.10,2013-01-14 22:06:00,
2013-01-14 16:22:00,28.6,23.0,30.39,NNE,31,4.0,9.0,79,0.00,,,0.00,weatherlink.com 1.10,2013-01-14 22:22:00,
2013-01-14 16:39:00,28.5,23.0,30.39,NE,53,1.0,6.0,81,0.00,,,0.00,weatherlink.com 1.10,2013-01-14 22:39:00,
2013-01-14 16:55:00,28.3,24.0,30.41,ENE,58,2.0,7.0,82,0.00,,,0.00,weatherlink.com 1.10,2013-01-14 22:55:00,
2013-01-14 17:11:00,28.2,23.0,30.40,ENE,70,2.0,7.0,82,0.00,,,0.00,weatherlink.com 1.10,2013-01-14 23:11:00,
2013-01-14 17:27:00,28.1,23.0,30.38,ENE,74,4.0,7.0,80,0.00,,,0.00,weatherlink.com 1.10,2013-01-14 23:27:00,
2013-01-14 17:43:00,28.0,23.0,30.38,NNE,27,4.0,10.0,80,0.00,,,0.00,weatherlink.com 1.10,2013-01-14 23:43:00,
2013-01-14 17:59:00,27.7,23.0,30.39,ENE,62,5.0,7.0,82,0.00,,,0.00,weatherlink.com 1.10,2013-01-14 23:59:00,
2013-01-14 18:15:00,27.4,23.0,30.39,NE,41,1.0,6.0,83,0.00,,,0.00,weatherlink.com 1.10,2013-01-15 00:15:00,
2013-01-14 18:31:00,27.1,23.0,30.38,NNW,339,3.0,8.0,84,0.00,,,0.00,weatherlink.com 1.10,2013-01-15 00:31:00,
2013-01-14 18:47:00,26.8,23.0,30.38,East,82,5.0,7.0,85,0.00,,,0.00,weatherlink.com 1.10,2013-01-15 00:47:00,
2013-01-14 19:03:00,26.7,23.0,30.38,ENE,77,1.0,5.0,85,0.00,,,0.00,weatherlink.com 1.10,2013-01-15 01:03:00,
2013-01-14 19:19:00,26.6,23.0,30.37,ENE,66,2.0,7.0,86,0.00,,,0.00,weatherlink.com 1.10,2013-01-15 01:19:00,
2013-01-14 19:36:00,26.5,23.0,30.37,NE,55,1.0,4.0,86,0.00,,,0.00,weatherlink.com 1.10,2013-01-15 01:36:00,
2013-01-14 19:53:00,26.3,23.0,30.37,NNE,22,3.0,4.0,87,0.00,,,0.00,weatherlink.com 1.10,2013-01-15 01:53:00,
2013-01-14 20:09:00,26.1,23.0,30.36,NE,38,1.0,4.0,87,0.00,,,0.00,weatherlink.com 1.10,2013-01-15 02:09:00,
2013-01-14 20:25:00,26.0,23.0,30.35,ENE,67,5.0,7.0,87,0.00,,,0.00,weatherlink.com 1.10,2013-01-15 02:25:00,
2013-01-14 20:41:00,25.8,23.0,30.36,ENE,57,0.0,5.0,88,0.00,,,0.00,weatherlink.com 1.10,2013-01-15 02:41:00,
2013-01-14 20:57:00,25.8,23.0,30.35,NE,55,1.0,4.0,88,0.00,,,0.00,weatherlink.com 1.10,2013-01-15 02:57:00,
2013-01-14 21:13:00,25.7,23.0,30.34,NE,47,3.0,4.0,88,0.00,,,0.00,weatherlink.com 1.10,2013-01-15 03:13:00,
2013-01-14 21:29:00,25.7,23.0,30.35,NE,49,2.0,6.0,88,0.00,,,0.00,weatherlink.com 1.10,2013-01-15 03:29:00,
2013-01-14 21:46:00,25.5,22.0,30.35,NNE,29,2.0,4.0,88,0.00,,,0.00,weatherlink.com 1.10,2013-01-15 03:46:00,
2013-01-14 22:02:00,25.4,23.0,30.35,NE,49,0.0,5.0,89,0.00,,,0.00,weatherlink.com 1.10,2013-01-15 04:02:00,
2013-01-14 22:18:00,25.2,22.0,30.35,ENE,70,2.0,5.0,89,0.00,,,0.00,weatherlink.com 1.10,2013-01-15 04:18:00,
2013-01-14 22:34:00,25.0,22.0,30.34,NE,39,4.0,7.0,89,0.00,,,0.00,weatherlink.com 1.10,2013-01-15 04:34:00,
2013-01-14 22:50:00,24.9,22.0,30.34,East,81,5.0,7.0,89,0.00,,,0.00,weatherlink.com 1.10,2013-01-15 04:50:00,
2013-01-14 23:07:00,24.8,22.0,30.34,ENE,59,7.0,7.0,90,0.00,,,0.00,weatherlink.com 1.10,2013-01-15 05:07:00,
2013-01-14 23:23:00,24.6,22.0,30.35,NNW,342,4.0,8.0,90,0.00,,,0.00,weatherlink.com 1.10,2013-01-15 05:23:00,
2013-01-14 23:39:00,24.5,22.0,30.34,NE,48,2.0,8.0,90,0.00,,,0.00,weatherlink.com 1.10,2013-01-15 05:39:00,
2013-01-14 23:56:00,24.4,22.0,30.34,NE,49,8.0,12.0,90,0.00,,,0.00,weatherlink.com 1.10,2013-01-15 05:56:00,